Millville Municipal Airport

Jump to: basic info | weather | frequencies | runways | comments

Related pages: nearby airports | nearby navaids | notams | map

Basic information (top)

Codes: KMIV MIV
Location: lon 39.367802, lat -75.072197, elev 85 ft / 26 m msl
Status: medium_airport
Scheduled airline service: no
Links: Wikipedia Mobile

Weather (top)

Current conditions (rec'd 2014/11/01 01:54Z):

KMIV 010154Z AUTO 36006KT 10SM BKN065 09/04 A2982

Airport forecast (rec'd 2014/10/31 00:39Z):

TAF KMIV 312333Z 0100/0124 36007KT P6SM OVC040 
     FM010500 03008KT P6SM -RA OVC025 
     FM011000 03011G20KT 5SM -RA OVC012 
      TEMPO 0111/0115 3SM RA BR OVC007 
     FM011700 01016G26KT 5SM -RA OVC025 
     FM012100 01017G27KT 6SM -SHRA OVC035

Frequencies (top)

Verify before use: may be inaccurate or out of date.

A/D: 124.6 MHz (APP/DEP)
ASOS: 128.125 MHz (ASOS)
CTAF: 123.65 MHz (CTAF)
RDO: 123.65 MHz (RDO)
UNIC: 123 MHz (UNICOM)

Runways (top)

10/28: 6,002 x 150 ft (1,829 x 46 m) — paved — lighted

14/32: 5,057 x 150 ft (1,541 x 46 m) — paved — lighted

Latest comments (top)

No comments yet for Millville Municipal Airport

More... (top)

See also NOTAMs and nearby airports and navaids, or visit the Millville Municipal Airport page at the main OurAirports website..